Location: Bothwell
(41.7170°N, 112.2589°W)
Time: 00:47:27
(UTC+00:00)

STARLINK-37349 - Pass Details

Date: 19 April 2026
Orbit: 264 x 266 km, 97.3° (Epoch: 18 April)

Event Time Altitude Azimuth Distance (km) Brightness Sun altitude
Rises 04:06:46 0° 11° (N) 1,906 5.7 -19.8°
Reaches altitude 10° 04:08:35 10° 11° (N) 1,090 4.5 -20.0°
Enters shadow 04:08:46 12° 11° (N) 1,011 4.3 -20.1°
